• In Austria
  • List of Countries
  • For 7 days
  • Water Temperature
  • Satellite Maps
  • Weather Map
  • News
  • Weather Widgets
  • user-avatar
    Login

    Hourly Weather Sarajevo

    Today, 17 December, Sunday

    Time Temperature Precipitation Wind Pressure Humidity
    00:00 +1°C° 0.2 mm 2 mps 682 mmHg 89%
    01:00 +1°C° 0.2 mm 2 mps 682 mmHg 89%
    02:00 +1°C° 0.4 mm 2 mps 682 mmHg 89%
    03:00 -1°C° 0.4 mm 2 mps 682 mmHg 89%
    04:00 -1°C° 0.4 mm 2 mps 683 mmHg 89%
    05:00 -1°C° 0.4 mm 2 mps 683 mmHg 89%
    06:00 -1°C° 0.4 mm 2 mps 683 mmHg 89%
    07:00 -1°C° 0.4 mm 2 mps 683 mmHg 89%
    08:00 -1°C° 0.5 mm 3 mps 683 mmHg 88%
    09:00 -1°C° 0.5 mm 3 mps 684 mmHg 87%
    10:00 -1°C° 0.5 mm 3 mps 684 mmHg 86%
    11:00 -1°C° 0.5 mm 3 mps 684 mmHg 86%
    12:00 -1°C° 0.5 mm 3 mps 684 mmHg 85%
    13:00 -1°C° 0.5 mm 3 mps 684 mmHg 84%
    14:00 -1°C° 0.4 mm 3 mps 685 mmHg 85%
    15:00 -2°C° 0.4 mm 3 mps 685 mmHg 86%
    16:00 -2°C° 0.4 mm 3 mps 685 mmHg 87%
    17:00 -4°C° 0.3 mm 3 mps 685 mmHg 87%
    18:00 -4°C° 0.3 mm 3 mps 686 mmHg 87%
    19:00 -4°C° 0.3 mm 3 mps 686 mmHg 87%
    20:00 -4°C° 0.2 mm 3 mps 687 mmHg 87%
    21:00 -4°C° 0.2 mm 3 mps 687 mmHg 87%
    22:00 -4°C° 0.2 mm 3 mps 687 mmHg 87%
    23:00 -4°C° 0.1 mm 3 mps 688 mmHg 87%

    Tomorrow, 18 December, Monday

    Time Temperature Precipitation Wind Pressure Humidity
    00:00 -4°C° 0.1 mm 3 mps 688 mmHg 87%
    01:00 -5°C° 0.1 mm 3 mps 688 mmHg 87%
    02:00 -5°C° 0.1 mm 3 mps 688 mmHg 87%
    03:00 -5°C° 0.1 mm 3 mps 688 mmHg 87%
    04:00 -5°C° 0.1 mm 3 mps 687 mmHg 87%
    05:00 -5°C° 0.1 mm 3 mps 688 mmHg 86%
    06:00 -5°C° 0.1 mm 3 mps 688 mmHg 86%
    07:00 -5°C° 0.1 mm 3 mps 688 mmHg 85%
    08:00 -5°C° 0.2 mm 3 mps 689 mmHg 83%
    09:00 -4°C° 0.2 mm 3 mps 689 mmHg 81%
    10:00 -4°C° 0.2 mm 4 mps 689 mmHg 78%
    11:00 -4°C° 0.1 mm 3 mps 689 mmHg 77%
    12:00 -2°C° 0.1 mm 3 mps 689 mmHg 77%
    13:00 -2°C° 0.1 mm 3 mps 689 mmHg 76%
    14:00 -4°C° 0.1 mm 3 mps 689 mmHg 78%
    15:00 -4°C° 0.1 mm 3 mps 689 mmHg 81%
    16:00 -5°C° 0.1 mm 3 mps 689 mmHg 84%
    17:00 -5°C° 0.1 mm 3 mps 689 mmHg 85%
    18:00 -6°C° 0.1 mm 3 mps 689 mmHg 86%
    19:00 -5°C° 0.1 mm 2 mps 689 mmHg 87%
    20:00 -5°C° 0.1 mm 2 mps 690 mmHg 87%
    21:00 -6°C° 0.1 mm 2 mps 690 mmHg 87%
    22:00 -6°C° 0.1 mm 2 mps 690 mmHg 88%
    23:00 -6°C° 0.1 mm 2 mps 690 mmHg 88%

    Day after tomorrow, 19 December, Tuesday

    Time Temperature Precipitation Wind Pressure Humidity
    00:00 -6°C° 0.1 mm 2 mps 690 mmHg 88%
    01:00 -6°C° 0.1 mm 2 mps 691 mmHg 88%
    02:00 -6°C° 0.1 mm 2 mps 691 mmHg 88%
    03:00 -6°C° 0.1 mm 2 mps 691 mmHg 87%
    04:00 -6°C° 0.1 mm 2 mps 691 mmHg 87%
    05:00 -6°C° 0 mm 2 mps 692 mmHg 87%
    06:00 -7°C° 0 mm 2 mps 692 mmHg 87%
    07:00 -7°C° 0 mm 2 mps 693 mmHg 87%
    08:00 -6°C° 0 mm 2 mps 693 mmHg 84%
    09:00 -5°C° 0 mm 2 mps 694 mmHg 80%
    10:00 -5°C° 0 mm 3 mps 694 mmHg 76%
    11:00 -5°C° 0 mm 3 mps 694 mmHg 74%
    12:00 -4°C° 0 mm 3 mps 694 mmHg 73%
    13:00 -4°C° 0 mm 3 mps 694 mmHg 71%
    14:00 -4°C° 0 mm 2 mps 694 mmHg 74%
    15:00 -4°C° 0 mm 2 mps 694 mmHg 78%
    16:00 -5°C° 0 mm 2 mps 694 mmHg 82%
    17:00 -6°C° 0 mm 2 mps 694 mmHg 84%
    18:00 -7°C° 0 mm 2 mps 695 mmHg 86%
    19:00 -8°C° 0 mm 2 mps 695 mmHg 88%
    20:00 -8°C° 0 mm 2 mps 695 mmHg 88%
    21:00 -8°C° 0 mm 2 mps 695 mmHg 88%
    22:00 -8°C° 0 mm 1 mps 695 mmHg 88%
    23:00 -8°C° 0 mm 1 mps 694 mmHg 87%

    20 December, Wednesday

    Time Temperature Precipitation Wind Pressure Humidity
    00:00 -8°C° 0 mm 1 mps 694 mmHg 87%
    01:00 -8°C° 0 mm 1 mps 694 mmHg 86%
    02:00 -9°C° 0 mm 1 mps 694 mmHg 85%
    03:00 -9°C° 0 mm 1 mps 693 mmHg 84%
    04:00 -9°C° 0 mm 1 mps 693 mmHg 83%
    05:00 -8°C° 0 mm 1 mps 693 mmHg 81%
    06:00 -8°C° 0 mm 1 mps 693 mmHg 79%
    07:00 -8°C° 0 mm 1 mps 693 mmHg 77%
    08:00 -6°C° 0 mm 1 mps 694 mmHg 73%
    09:00 -4°C° 0 mm 1 mps 694 mmHg 70%
    10:00 -3°C° 0 mm 1 mps 694 mmHg 66%
    11:00 -2°C° 0 mm 1 mps 694 mmHg 64%
    12:00 -1°C° 0 mm 1 mps 694 mmHg 61%
    13:00 0°C° 0 mm 1 mps 694 mmHg 59%
    14:00 -1°C° 0 mm 1 mps 694 mmHg 64%
    15:00 -3°C° 0 mm 1 mps 694 mmHg 69%
    16:00 -4°C° 0 mm 1 mps 693 mmHg 75%
    17:00 -4°C° 0 mm 1 mps 694 mmHg 76%
    18:00 -6°C° 0 mm 1 mps 694 mmHg 78%
    19:00 -7°C° 0 mm 1 mps 694 mmHg 80%
    20:00 -7°C° 0 mm 1 mps 695 mmHg 80%
    21:00 -7°C° 0 mm 1 mps 695 mmHg 80%
    22:00 -8°C° 0 mm 1 mps 695 mmHg 80%
    23:00 -8°C° 0 mm 1 mps 695 mmHg 81%

    21 December, Thursday

    Time Temperature Precipitation Wind Pressure Humidity
    00:00 -8°C° 0 mm 1 mps 695 mmHg 81%
    01:00 -8°C° 0 mm 1 mps 695 mmHg 82%
    02:00 -8°C° 0 mm 1 mps 695 mmHg 82%
    03:00 -8°C° 0 mm 1 mps 695 mmHg 82%
    04:00 -8°C° 0 mm 1 mps 695 mmHg 83%
    05:00 -8°C° 0 mm 1 mps 695 mmHg 83%
    06:00 -8°C° 0 mm 1 mps 696 mmHg 83%
    07:00 -8°C° 0 mm 1 mps 696 mmHg 83%
    08:00 -6°C° 0 mm 1 mps 696 mmHg 79%
    09:00 -3°C° 0 mm 1 mps 696 mmHg 75%
    10:00 -1°C° 0 mm 1 mps 697 mmHg 71%
    11:00 0°C° 0 mm 1 mps 697 mmHg 68%
    12:00 +1°C° 0 mm 1 mps 696 mmHg 65%
    13:00 +2°C° 0 mm 1 mps 696 mmHg 61%
    14:00 +1°C° 0 mm 1 mps 696 mmHg 67%
    15:00 +1°C° 0 mm 1 mps 696 mmHg 72%
    16:00 -1°C° 0 mm 0 mps 695 mmHg 77%
    17:00 0°C° 0.1 mm 1 mps 695 mmHg 78%
    18:00 0°C° 0.1 mm 1 mps 695 mmHg 79%
    19:00 -1°C° 0.1 mm 1 mps 695 mmHg 80%
    20:00 0°C° 0.1 mm 1 mps 695 mmHg 81%
    21:00 0°C° 0.1 mm 1 mps 696 mmHg 82%
    22:00 0°C° 0.1 mm 1 mps 696 mmHg 84%
    23:00 +1°C° 0.1 mm 1 mps 695 mmHg 85%

    22 December, Friday

    Time Temperature Precipitation Wind Pressure Humidity
    00:00 +1°C° 0.1 mm 1 mps 695 mmHg 86%
    01:00 +2°C° 0.1 mm 1 mps 695 mmHg 87%
    02:00 +2°C° 0 mm 1 mps 695 mmHg 88%
    03:00 +2°C° 0 mm 1 mps 695 mmHg 88%
    04:00 +2°C° 0 mm 1 mps 694 mmHg 89%
    05:00 +3°C° 0 mm 1 mps 694 mmHg 89%
    06:00 +3°C° 0 mm 1 mps 694 mmHg 89%
    07:00 +3°C° 0 mm 1 mps 694 mmHg 89%
    08:00 +3°C° 0 mm 1 mps 694 mmHg 89%
    09:00 +4°C° 0 mm 1 mps 694 mmHg 89%
    10:00 +5°C° 0 mm 1 mps 694 mmHg 89%
    11:00 +5°C° 0 mm 1 mps 693 mmHg 89%
    12:00 +5°C° 0 mm 1 mps 693 mmHg 90%
    13:00 +4°C° 0 mm 2 mps 692 mmHg 90%
    14:00 +5°C° 0.4 mm 1 mps 692 mmHg 92%
    15:00 +4°C° 0.4 mm 1 mps 691 mmHg 93%
    16:00 +3°C° 0.4 mm 1 mps 691 mmHg 95%
    17:00 +3°C° 1.2 mm 1 mps 691 mmHg 95%
    18:00 +3°C° 1.2 mm 1 mps 691 mmHg 96%
    19:00 +2°C° 1.2 mm 1 mps 691 mmHg 96%
    20:00 +1°C° 1.1 mm 2 mps 692 mmHg 94%
    21:00 0°C° 1.1 mm 3 mps 692 mmHg 92%
    22:00 -2°C° 1.1 mm 4 mps 693 mmHg 90%
    23:00 -2°C° 0.1 mm 4 mps 692 mmHg 88%
    Show more